| time (UTC) | temp F | wind direction | speed MPH | gust MPH | rain 1hr in | rain 24hr in | rain mn in | humidity % | barometer mb |
| 20260508080907 | 33 | 312 | 3.0 | 4.0 | 0.00 | 0.00 | 0.00 | 48 | 1008.9 |
| 20260508080339 | 33 | 307 | 3.0 | 4.0 | 0.00 | 0.00 | 0.00 | 49 | 1008.9 |
| 20260508075837 | 33 | 307 | 3.0 | 4.0 | 0.00 | 0.00 | 0.00 | 49 | 1009.0 |
| 20260508075309 | 33 | 308 | 3.0 | 4.0 | 0.00 | 0.00 | 0.00 | 48 | 1009.0 |
| 20260508074744 | 33 | 302 | 3.0 | 4.0 | 0.00 | 0.00 | 0.00 | 47 | 1009.1 |
| 20260508074220 | 33 | 302 | 4.0 | 5.0 | 0.00 | 0.00 | 0.00 | 47 | 1009.1 |
| 20260508073717 | 33 | 300 | 4.0 | 5.0 | 0.00 | 0.00 | 0.00 | 47 | 1009.1 |
| 20260508073216 | 33 | 290 | 3.0 | 5.0 | 0.00 | 0.00 | 0.00 | 47 | 1009.2 |
| 20260508072719 | 33 | 306 | 3.0 | 4.0 | 0.00 | 0.00 | 0.00 | 47 | 1009.1 |
| 20260508072428 | 34 | 302 | 3.0 | 4.0 | 0.00 | 0.00 | 0.00 | 46 | 1009.2 |
| 20260508071657 | 35 | 299 | 3.0 | 4.0 | 0.00 | 0.00 | 0.00 | 44 | 1009.1 |
| 20260508071130 | 35 | 300 | 3.0 | 4.0 | 0.00 | 0.00 | 0.00 | 44 | 1009.2 |
| 20260508070629 | 35 | 306 | 3.0 | 3.0 | 0.00 | 0.00 | 0.00 | 44 | 1009.3 |
| 20260508070114 | 34 | 306 | 3.0 | 4.0 | 0.00 | 0.00 | 0.00 | 46 | 1009.4 |
| 20260508070107 | 35 | 311 | 3.0 | 4.0 | 0.00 | 0.00 | 0.00 | 44 | 1009.3 |
| 20260508065109 | 34 | 305 | 3.0 | 4.0 | 0.00 | 0.00 | 0.00 | 47 | 1009.5 |
| 20260508064611 | 34 | 309 | 3.0 | 4.0 | 0.00 | 0.00 | 0.00 | 46 | 1009.5 |
| 20260508064048 | 35 | 309 | 3.0 | 4.0 | 0.00 | 0.00 | 0.00 | 46 | 1009.5 |
| 20260508063549 | 35 | 309 | 3.0 | 4.0 | 0.00 | 0.00 | 0.00 | 45 | 1009.6 |
| 20260508063029 | 35 | 306 | 3.0 | 4.0 | 0.00 | 0.00 | 0.00 | 45 | 1009.7 |
| 20260508062511 | 35 | 305 | 3.0 | 4.0 | 0.00 | 0.00 | 0.00 | 44 | 1009.8 |
| 20260508062507 | 35 | 304 | 3.0 | 4.0 | 0.00 | 0.00 | 0.00 | 45 | 1009.7 |
| 20260508061945 | 35 | 305 | 3.0 | 4.0 | 0.00 | 0.00 | 0.00 | 45 | 1009.7 |
| 20260508060918 | 36 | 304 | 3.0 | 4.0 | 0.00 | 0.00 | 0.00 | 44 | 1009.7 |
| 20260508060629 | 36 | 305 | 3.0 | 4.0 | 0.00 | 0.00 | 0.00 | 44 | 1009.8 |
| 20260508055835 | 36 | 306 | 3.0 | 4.0 | 0.00 | 0.00 | 0.00 | 44 | 1009.8 |
| 20260508055318 | 36 | 305 | 3.0 | 4.0 | 0.00 | 0.00 | 0.00 | 44 | 1009.9 |
| 20260508054801 | 35 | 304 | 3.0 | 4.0 | 0.00 | 0.00 | 0.00 | 45 | 1009.8 |
| 20260508054301 | 36 | 303 | 3.0 | 4.0 | 0.00 | 0.00 | 0.00 | 45 | 1009.9 |
| 20260508053739 | 36 | 304 | 3.0 | 4.0 | 0.00 | 0.00 | 0.00 | 45 | 1009.9 |
| 20260508053240 | 36 | 302 | 4.0 | 5.0 | 0.00 | 0.00 | 0.00 | 44 | 1010.0 |
| 20260508053012 | 37 | 294 | 4.0 | 5.0 | 0.00 | 0.00 | 0.00 | 42 | 1010.0 |
| 20260508052238 | 37 | 294 | 3.0 | 5.0 | 0.00 | 0.00 | 0.00 | 42 | 1010.1 |
| 20260508051739 | 37 | 302 | 3.0 | 4.0 | 0.00 | 0.00 | 0.00 | 42 | 1010.1 |
| 20260508051212 | 37 | 301 | 2.0 | 3.0 | 0.00 | 0.00 | 0.00 | 43 | 1010.0 |
| 20260508050945 | 37 | 298 | 2.0 | 3.0 | 0.00 | 0.00 | 0.00 | 44 | 1010.1 |
| 20260508050151 | 37 | 298 | 1.0 | 2.0 | 0.00 | 0.00 | 0.00 | 42 | 1010.1 |
| 20260508045651 | 38 | 298 | 1.0 | 3.0 | 0.00 | 0.00 | 0.00 | 41 | 1010.0 |
| 20260508045151 | 38 | 298 | 1.0 | 3.0 | 0.00 | 0.00 | 0.00 | 40 | 1010.0 |
| 20260508044650 | 40 | 298 | 1.0 | 3.0 | 0.00 | 0.00 | 0.00 | 38 | 1010.0 |
| 20260508044133 | 40 | 298 | 2.0 | 3.0 | 0.00 | 0.00 | 0.00 | 35 | 1009.9 |
| 20260508043636 | 41 | 298 | 3.0 | 4.0 | 0.00 | 0.00 | 0.00 | 35 | 1010.0 |
| 20260508043113 | 41 | 297 | 3.0 | 5.0 | 0.00 | 0.00 | 0.00 | 34 | 1010.1 |
| 20260508042555 | 43 | 300 | 3.0 | 5.0 | 0.00 | 0.00 | 0.00 | 32 | 1010.1 |
| 20260508042308 | 43 | 299 | 4.0 | 5.0 | 0.00 | 0.00 | 0.00 | 30 | 1010.1 |
| 20260508041537 | 44 | 309 | 4.0 | 5.0 | 0.00 | 0.00 | 0.00 | 30 | 1010.1 |
| 20260508041038 | 43 | 306 | 3.0 | 5.0 | 0.00 | 0.00 | 0.00 | 31 | 1010.1 |
| 20260508040515 | 43 | 305 | 4.0 | 5.0 | 0.00 | 0.00 | 0.00 | 31 | 1010.1 |
| 20260508040242 | 43 | 304 | 3.0 | 5.0 | 0.00 | 0.00 | 0.00 | 31 | 1010.1 |
| 20260508035512 | 44 | 304 | 4.0 | 5.0 | 0.00 | 0.00 | 0.00 | 30 | 1010.1 |
| 20260508034952 | 45 | 302 | 4.0 | 5.0 | 0.00 | 0.00 | 0.00 | 28 | 1010.2 |
| 20260508034430 | 45 | 305 | 4.0 | 7.0 | 0.00 | 0.00 | 0.00 | 28 | 1010.2 |
| 20260508033905 | 46 | 304 | 4.0 | 7.0 | 0.00 | 0.00 | 0.00 | 27 | 1010.1 |
| 20260508033344 | 46 | 326 | 4.0 | 7.0 | 0.00 | 0.00 | 0.00 | 27 | 1010.2 |
| 20260508032838 | 46 | 309 | 4.0 | 7.0 | 0.00 | 0.00 | 0.00 | 27 | 1010.1 |
| 20260508032338 | 46 | 300 | 4.0 | 7.0 | 0.00 | 0.00 | 0.00 | 27 | 1010.2 |
| 20260508031836 | 46 | 305 | 4.0 | 7.0 | 0.00 | 0.00 | 0.00 | 27 | 1010.1 |
| 20260508031338 | 46 | 311 | 4.0 | 7.0 | 0.00 | 0.00 | 0.00 | 27 | 1010.1 |
| 20260508030814 | 45 | 304 | 4.0 | 7.0 | 0.00 | 0.00 | 0.00 | 28 | 1010.1 |
| 20260508030311 | 45 | 301 | 4.0 | 8.0 | 0.00 | 0.00 | 0.00 | 28 | 1010.1 |
| 20260508030021 | 47 | 303 | 4.0 | 8.0 | 0.00 | 0.00 | 0.00 | 26 | 1010.1 |
| 20260508025232 | 47 | 304 | 4.0 | 7.0 | 0.00 | 0.00 | 0.00 | 26 | 1010.1 |
| 20260508024711 | 46 | 300 | 4.0 | 5.0 | 0.00 | 0.00 | 0.00 | 26 | 1010.0 |
| 20260508024142 | 46 | 306 | 4.0 | 5.0 | 0.00 | 0.00 | 0.00 | 26 | 1010.0 |
| 20260508023639 | 46 | 309 | 4.0 | 5.0 | 0.00 | 0.00 | 0.00 | 26 | 1010.0 |
| 20260508023134 | 45 | 315 | 3.0 | 5.0 | 0.00 | 0.00 | 0.00 | 27 | 1010.0 |
| 20260508022632 | 45 | 301 | 2.0 | 4.0 | 0.00 | 0.00 | 0.00 | 28 | 1009.9 |
| 20260508022128 | 45 | 340 | 2.0 | 4.0 | 0.00 | 0.00 | 0.00 | 29 | 1010.0 |
| 20260508021627 | 45 | 5 | 2.0 | 3.0 | 0.00 | 0.00 | 0.00 | 29 | 1010.0 |
| 20260508021101 | 45 | 5 | 2.0 | 3.0 | 0.00 | 0.00 | 0.00 | 30 | 1010.0 |
| 20260508020533 | 45 | 14 | 2.0 | 3.0 | 0.00 | 0.00 | 0.00 | 30 | 1009.8 |
| 20260508020304 | 45 | 15 | 2.0 | 3.0 | 0.00 | 0.00 | 0.00 | 30 | 1009.8 |
| 20260508015527 | 46 | 17 | 1.0 | 3.0 | 0.00 | 0.00 | 0.00 | 31 | 1009.8 |
| 20260508015256 | 46 | 17 | 1.0 | 3.0 | 0.00 | 0.00 | 0.00 | 29 | 1009.6 |
| 20260508014520 | 47 | 17 | 1.0 | 3.0 | 0.00 | 0.00 | 0.00 | 28 | 1009.5 |
| 20260508014019 | 48 | 17 | 1.0 | 3.0 | 0.00 | 0.00 | 0.00 | 26 | 1009.6 |
| 20260508013452 | 48 | 18 | 0.0 | 1.0 | 0.00 | 0.00 | 0.00 | 25 | 1009.5 |
| 20260508012925 | 49 | 18 | 1.0 | 2.0 | 0.00 | 0.00 | 0.00 | 26 | 1009.5 |
| 20260508012652 | 49 | 18 | 1.0 | 3.0 | 0.00 | 0.00 | 0.00 | 25 | 1009.3 |
| 20260508011857 | 50 | 18 | 1.0 | 3.0 | 0.00 | 0.00 | 0.00 | 23 | 1009.3 |
| 20260508011328 | 51 | 34 | 1.0 | 3.0 | 0.00 | 0.00 | 0.00 | 22 | 1009.2 |
| 20260508010827 | 51 | 41 | 1.0 | 4.0 | 0.00 | 0.00 | 0.00 | 24 | 1009.2 |
| 20260508010530 | 51 | 41 | 2.0 | 5.0 | 0.00 | 0.00 | 0.00 | 22 | 1009.2 |
| 20260508005757 | 51 | 302 | 2.0 | 7.0 | 0.00 | 0.00 | 0.00 | 22 | 1009.1 |
| 20260508005230 | 51 | 247 | 2.0 | 7.0 | 0.00 | 0.00 | 0.00 | 22 | 1009.0 |
| 20260508004704 | 52 | 288 | 2.0 | 9.0 | 0.00 | 0.00 | 0.00 | 21 | 1009.0 |
| 20260508004136 | 52 | 329 | 2.0 | 9.0 | 0.00 | 0.00 | 0.00 | 21 | 1009.0 |
| 20260508003634 | 52 | 248 | 2.0 | 7.0 | 0.00 | 0.00 | 0.00 | 22 | 1009.0 |
| 20260508003130 | 52 | 304 | 3.0 | 14.0 | 0.00 | 0.00 | 0.00 | 22 | 1009.0 |
| 20260508002628 | 52 | 51 | 4.0 | 14.0 | 0.00 | 0.00 | 0.00 | 22 | 1008.9 |
| 20260508002100 | 53 | 28 | 3.0 | 8.0 | 0.00 | 0.00 | 0.00 | 21 | 1008.8 |
| 20260508001558 | 53 | 331 | 5.0 | 10.0 | 0.00 | 0.00 | 0.00 | 21 | 1008.8 |
| 20260508001031 | 53 | 274 | 4.0 | 10.0 | 0.00 | 0.00 | 0.00 | 21 | 1008.9 |
| 20260508000528 | 53 | 284 | 3.0 | 9.0 | 0.00 | 0.00 | 0.00 | 21 | 1008.9 |
| 20260508000000 | 54 | 295 | 4.0 | 14.0 | 0.00 | 0.00 | 0.00 | 21 | 1008.9 |
| 20260507235458 | 54 | 277 | 3.0 | 14.0 | 0.00 | 0.00 | 0.00 | 21 | 1008.9 |
| 20260507235203 | 53 | 266 | 4.0 | 9.0 | 0.00 | 0.00 | 0.00 | 22 | 1008.9 |
| 20260507234428 | 53 | 263 | 3.0 | 8.0 | 0.00 | 0.00 | 0.00 | 22 | 1008.8 |
| 20260507233902 | 53 | 240 | 3.0 | 8.0 | 0.00 | 0.00 | 0.00 | 22 | 1008.8 |
| 20260507233357 | 53 | 217 | 4.0 | 14.0 | 0.00 | 0.00 | 0.00 | 23 | 1008.8 |
| 20260507232832 | 53 | 302 | 6.0 | 14.0 | 0.00 | 0.00 | 0.00 | 23 | 1009.0 |
| 20260507232328 | 53 | 239 | 7.0 | 15.0 | 0.00 | 0.00 | 0.00 | 23 | 1008.9 |
| 20260507231824 | 53 | 281 | 6.0 | 15.0 | 0.00 | 0.00 | 0.00 | 23 | 1008.9 |
| 20260507231302 | 53 | 285 | 6.0 | 12.0 | 0.00 | 0.00 | 0.00 | 23 | 1009.0 |
| 20260507230759 | 53 | 253 | 6.0 | 12.0 | 0.00 | 0.00 | 0.00 | 23 | 1008.9 |
| 20260507230302 | 53 | 247 | 5.0 | 12.0 | 0.00 | 0.00 | 0.00 | 23 | 1009.0 |
| 20260507225756 | 53 | 196 | 4.0 | 13.0 | 0.00 | 0.00 | 0.00 | 24 | 1009.0 |
| 20260507225254 | 52 | 318 | 6.0 | 13.0 | 0.00 | 0.00 | 0.00 | 24 | 1009.1 |
| 20260507224727 | 52 | 221 | 5.0 | 13.0 | 0.00 | 0.00 | 0.00 | 25 | 1009.1 |
| 20260507224222 | 52 | 274 | 3.0 | 13.0 | 0.00 | 0.00 | 0.00 | 26 | 1009.2 |
| 20260507223948 | 52 | 304 | 3.0 | 8.0 | 0.00 | 0.00 | 0.00 | 27 | 1009.3 |
| 20260507223214 | 51 | 318 | 4.0 | 12.0 | 0.00 | 0.00 | 0.00 | 27 | 1009.2 |
| 20260507222711 | 51 | 208 | 5.0 | 12.0 | 0.00 | 0.00 | 0.00 | 26 | 1009.1 |
| 20260507222145 | 51 | 197 | 4.0 | 11.0 | 0.00 | 0.00 | 0.00 | 26 | 1009.2 |
| 20260507221618 | 51 | 299 | 3.0 | 11.0 | 0.00 | 0.00 | 0.00 | 27 | 1009.1 |
| 20260507221116 | 52 | 261 | 4.0 | 8.0 | 0.00 | 0.00 | 0.00 | 28 | 1009.1 |
| 20260507220548 | 51 | 344 | 5.0 | 12.0 | 0.00 | 0.00 | 0.00 | 28 | 1009.2 |
| 20260507220023 | 51 | 315 | 4.0 | 12.0 | 0.00 | 0.00 | 0.00 | 30 | 1009.3 |
| 20260507215744 | 51 | 355 | 2.0 | 7.0 | 0.00 | 0.00 | 0.00 | 31 | 1009.2 |
| 20260507214947 | 51 | 201 | 4.0 | 12.0 | 0.00 | 0.00 | 0.00 | 31 | 1009.3 |
| 20260507214444 | 51 | 275 | 7.0 | 16.0 | 0.00 | 0.00 | 0.00 | 34 | 1009.4 |
| 20260507213942 | 49 | 219 | 8.0 | 16.0 | 0.00 | 0.00 | 0.00 | 36 | 1009.5 |
| 20260507213434 | 49 | 229 | 7.0 | 14.0 | 0.00 | 0.00 | 0.00 | 38 | 1009.6 |
| 20260507212932 | 48 | 183 | 7.0 | 15.0 | 0.00 | 0.00 | 0.00 | 41 | 1009.7 |
| 20260507212637 | 47 | 189 | 8.0 | 15.0 | 0.00 | 0.00 | 0.00 | 43 | 1009.9 |
| 20260507211901 | 46 | 223 | 8.0 | 19.0 | 0.00 | 0.00 | 0.00 | 43 | 1010.1 |
| 20260507211359 | 47 | 257 | 7.0 | 21.0 | 0.00 | 0.00 | 0.00 | 43 | 1010.2 |
| 20260507210854 | 46 | 190 | 7.0 | 21.0 | 0.00 | 0.00 | 0.00 | 43 | 1010.0 |
| 20260507210352 | 46 | 284 | 8.0 | 21.0 | 0.00 | 0.00 | 0.00 | 45 | 1010.0 |
| 20260507205824 | 46 | 300 | 10.0 | 21.0 | 0.00 | 0.00 | 0.00 | 45 | 1010.2 |
| 20260507205321 | 46 | 313 | 12.0 | 28.0 | 0.00 | 0.00 | 0.00 | 45 | 1010.3 |
| 20260507204754 | 48 | 273 | 9.0 | 28.0 | 0.00 | 0.00 | 0.00 | 39 | 1010.1 |
| 20260507204226 | 49 | 323 | 7.0 | 15.0 | 0.00 | 0.00 | 0.00 | 33 | 1009.7 |
| 20260507203726 | 50 | 313 | 6.0 | 15.0 | 0.00 | 0.00 | 0.00 | 34 | 1009.6 |
| 20260507203206 | 50 | 5 | 7.0 | 18.0 | 0.00 | 0.00 | 0.00 | 34 | 1009.6 |
| 20260507202705 | 49 | 325 | 8.0 | 18.0 | 0.00 | 0.00 | 0.00 | 36 | 1009.9 |
| 20260507202208 | 50 | 340 | 7.0 | 17.0 | 0.00 | 0.00 | 0.00 | 35 | 1010.0 |
| 20260507201644 | 50 | 170 | 9.0 | 17.0 | 0.00 | 0.00 | 0.00 | 32 | 1009.9 |
| 20260507201347 | 49 | 216 | 9.0 | 16.0 | 0.00 | 0.00 | 0.00 | 30 | 1010.0 |
| 20260507200614 | 50 | 215 | 9.0 | 16.0 | 0.00 | 0.00 | 0.00 | 31 | 1010.2 |
| 20260507200050 | 49 | 204 | 8.0 | 20.0 | 0.00 | 0.00 | 0.00 | 33 | 1010.2 |
| 20260507195531 | 49 | 266 | 8.0 | 20.0 | 0.00 | 0.00 | 0.00 | 34 | 1010.2 |
| 20260507195032 | 49 | 302 | 9.0 | 22.0 | 0.00 | 0.00 | 0.00 | 34 | 1010.5 |
| 20260507194505 | 49 | 304 | 7.0 | 22.0 | 0.00 | 0.00 | 0.00 | 33 | 1010.3 |
| 20260507194443 | 49 | 318 | 8.0 | 22.0 | 0.00 | 0.00 | 0.00 | 33 | 1010.2 |
| 20260507193438 | 49 | 340 | 9.0 | 22.0 | 0.00 | 0.00 | 0.00 | 33 | 1010.3 |
| 20260507192938 | 50 | 281 | 11.0 | 25.0 | 0.00 | 0.00 | 0.00 | 33 | 1010.4 |
| 20260507192439 | 49 | 316 | 12.0 | 25.0 | 0.00 | 0.00 | 0.00 | 33 | 1010.4 |
| 20260507191940 | 49 | 277 | 8.0 | 21.0 | 0.00 | 0.00 | 0.00 | 30 | 1010.4 |
| 20260507191440 | 51 | 189 | 7.0 | 17.0 | 0.00 | 0.00 | 0.00 | 28 | 1010.2 |
| 20260507190919 | 50 | 313 | 8.0 | 17.0 | 0.00 | 0.00 | 0.00 | 28 | 1010.0 |
| 20260507190408 | 50 | 271 | 8.0 | 25.0 | 0.00 | 0.00 | 0.00 | 27 | 1010.1 |
| 20260507185903 | 50 | 285 | 10.0 | 25.0 | 0.00 | 0.00 | 0.00 | 28 | 1010.0 |
| 20260507185338 | 50 | 198 | 11.0 | 25.0 | 0.00 | 0.00 | 0.00 | 27 | 1010.1 |
| 20260507185045 | 50 | 248 | 9.0 | 25.0 | 0.00 | 0.00 | 0.00 | 26 | 1010.0 |
| 20260507184312 | 51 | 240 | 8.0 | 20.0 | 0.00 | 0.00 | 0.00 | 26 | 1010.1 |
| 20260507183811 | 50 | 148 | 7.0 | 20.0 | 0.00 | 0.00 | 0.00 | 26 | 1010.1 |
| 20260507183308 | 50 | 214 | 6.0 | 16.0 | 0.00 | 0.00 | 0.00 | 27 | 1010.1 |
| 20260507182810 | 49 | 318 | 8.0 | 16.0 | 0.00 | 0.00 | 0.00 | 28 | 1010.4 |
| 20260507182242 | 49 | 271 | 8.0 | 15.0 | 0.00 | 0.00 | 0.00 | 29 | 1010.3 |
| 20260507181714 | 49 | 302 | 8.0 | 18.0 | 0.00 | 0.00 | 0.00 | 28 | 1010.4 |
| 20260507181214 | 49 | 252 | 7.0 | 14.0 | 0.00 | 0.00 | 0.00 | 27 | 1010.4 |
| 20260507180649 | 49 | 180 | 8.0 | 21.0 | 0.00 | 0.00 | 0.00 | 26 | 1010.3 |
| 20260507180623 | 49 | 203 | 8.0 | 21.0 | 0.00 | 0.00 | 0.00 | 27 | 1010.3 |
| 20260507175851 | 50 | 298 | 6.0 | 17.0 | 0.00 | 0.00 | 0.00 | 27 | 1010.2 |
| 20260507175118 | 49 | 250 | 7.0 | 15.0 | 0.00 | 0.00 | 0.00 | 27 | 1010.3 |
| 20260507174548 | 49 | 219 | 8.0 | 20.0 | 0.00 | 0.00 | 0.00 | 27 | 1010.6 |
| 20260507174021 | 49 | 252 | 9.0 | 20.0 | 0.00 | 0.00 | 0.00 | 27 | 1010.8 |
| 20260507173457 | 49 | 262 | 8.0 | 17.0 | 0.00 | 0.00 | 0.00 | 27 | 1010.8 |
| 20260507173202 | 50 | 273 | 8.0 | 19.0 | 0.00 | 0.00 | 0.00 | 26 | 1010.8 |
| 20260507172404 | 49 | 262 | 9.0 | 19.0 | 0.00 | 0.00 | 0.00 | 29 | 1010.9 |
| 20260507171840 | 49 | 190 | 7.0 | 16.0 | 0.00 | 0.00 | 0.00 | 27 | 1011.0 |
| 20260507171544 | 49 | 325 | 6.0 | 15.0 | 0.00 | 0.00 | 0.00 | 27 | 1011.0 |
| 20260507170808 | 49 | 194 | 8.0 | 19.0 | 0.00 | 0.00 | 0.00 | 28 | 1011.1 |
| 20260507170242 | 49 | 279 | 8.0 | 19.0 | 0.00 | 0.00 | 0.00 | 26 | 1011.1 |
| 20260507165716 | 49 | 257 | 7.0 | 17.0 | 0.00 | 0.00 | 0.00 | 26 | 1011.2 |
| 20260507165149 | 49 | 202 | 7.0 | 17.0 | 0.00 | 0.00 | 0.00 | 28 | 1011.2 |
| 20260507164646 | 49 | 201 | 6.0 | 17.0 | 0.00 | 0.00 | 0.00 | 28 | 1011.3 |
| 20260507164143 | 49 | 260 | 6.0 | 18.0 | 0.00 | 0.00 | 0.00 | 29 | 1011.4 |
| 20260507163639 | 48 | 313 | 8.0 | 18.0 | 0.00 | 0.00 | 0.00 | 28 | 1011.4 |
| 20260507163136 | 49 | 327 | 7.0 | 16.0 | 0.00 | 0.00 | 0.00 | 29 | 1011.4 |
| 20260507162611 | 48 | 254 | 6.0 | 13.0 | 0.00 | 0.00 | 0.00 | 29 | 1011.7 |
| 20260507162317 | 48 | 294 | 6.0 | 15.0 | 0.00 | 0.00 | 0.00 | 30 | 1011.7 |
| 20260507161751 | 48 | 259 | 9.0 | 20.0 | 0.00 | 0.00 | 0.00 | 29 | 1011.8 |
| 20260507161225 | 48 | 210 | 10.0 | 21.0 | 0.00 | 0.00 | 0.00 | 31 | 1011.9 |
| 20260507160427 | 47 | 282 | 8.0 | 21.0 | 0.00 | 0.00 | 0.00 | 30 | 1011.9 |
| 20260507155901 | 47 | 224 | 7.0 | 18.0 | 0.00 | 0.00 | 0.00 | 31 | 1012.0 |
| 20260507155331 | 46 | 222 | 9.0 | 17.0 | 0.00 | 0.00 | 0.00 | 32 | 1012.2 |
| 20260507154834 | 45 | 271 | 7.0 | 16.0 | 0.00 | 0.00 | 0.00 | 35 | 1012.1 |
| 20260507154829 | 45 | 21 | 8.0 | 16.0 | 0.00 | 0.00 | 0.00 | 33 | 1012.1 |
| 20260507154054 | 44 | 268 | 7.0 | 16.0 | 0.00 | 0.00 | 0.00 | 36 | 1012.2 |
| 20260507153259 | 44 | 335 | 9.0 | 18.0 | 0.00 | 0.00 | 0.00 | 37 | 1012.3 |
| 20260507153238 | 45 | 279 | 9.0 | 21.0 | 0.00 | 0.00 | 0.00 | 33 | 1012.4 |
| 20260507152730 | 44 | 260 | 10.0 | 18.0 | 0.00 | 0.00 | 0.00 | 36 | 1012.3 |
| 20260507151932 | 46 | 283 | 6.0 | 19.0 | 0.00 | 0.00 | 0.00 | 31 | 1012.3 |
| 20260507151158 | 46 | 217 | 7.0 | 19.0 | 0.00 | 0.00 | 0.00 | 33 | 1012.3 |
| 20260507150654 | 46 | 267 | 9.0 | 21.0 | 0.00 | 0.00 | 0.00 | 32 | 1012.2 |
| 20260507150151 | 46 | 292 | 9.0 | 21.0 | 0.00 | 0.00 | 0.00 | 31 | 1012.2 |
| 20260507145649 | 46 | 278 | 9.0 | 18.0 | 0.00 | 0.00 | 0.00 | 32 | 1012.3 |
| 20260507145145 | 46 | 247 | 8.0 | 18.0 | 0.00 | 0.00 | 0.00 | 32 | 1012.2 |
| 20260507144643 | 46 | 238 | 8.0 | 18.0 | 0.00 | 0.00 | 0.00 | 32 | 1012.3 |
| 20260507144115 | 46 | 340 | 7.0 | 18.0 | 0.00 | 0.00 | 0.00 | 33 | 1012.3 |
| 20260507143612 | 46 | 271 | 6.0 | 12.0 | 0.00 | 0.00 | 0.00 | 33 | 1012.4 |
| 20260507143317 | 46 | 83 | 9.0 | 21.0 | 0.00 | 0.00 | 0.00 | 35 | 1012.4 |
| 20260507142543 | 46 | 205 | 7.0 | 21.0 | 0.00 | 0.00 | 0.00 | 33 | 1012.5 |
| 20260507142248 | 47 | 333 | 4.0 | 11.0 | 0.00 | 0.00 | 0.00 | 32 | 1012.5 |
| 20260507141721 | 46 | 275 | 4.0 | 11.0 | 0.00 | 0.00 | 0.00 | 34 | 1012.4 |
| 20260507141217 | 45 | 306 | 4.0 | 12.0 | 0.00 | 0.00 | 0.00 | 34 | 1012.5 |
| 20260507140443 | 45 | 267 | 6.0 | 15.0 | 0.00 | 0.00 | 0.00 | 34 | 1012.6 |
| 20260507135915 | 45 | 313 | 6.0 | 15.0 | 0.00 | 0.00 | 0.00 | 35 | 1012.5 |
| 20260507135412 | 45 | 276 | 5.0 | 13.0 | 0.00 | 0.00 | 0.00 | 35 | 1012.5 |
| 20260507134906 | 44 | 293 | 6.0 | 13.0 | 0.00 | 0.00 | 0.00 | 36 | 1012.7 |
| 20260507134339 | 44 | 322 | 7.0 | 18.0 | 0.00 | 0.00 | 0.00 | 36 | 1012.6 |
| 20260507133837 | 44 | 194 | 7.0 | 18.0 | 0.00 | 0.00 | 0.00 | 37 | 1012.6 |
| 20260507133310 | 43 | 301 | 6.0 | 13.0 | 0.00 | 0.00 | 0.00 | 38 | 1012.6 |
| 20260507132807 | 43 | 299 | 6.0 | 15.0 | 0.00 | 0.00 | 0.00 | 37 | 1012.7 |
| 20260507132240 | 43 | 296 | 8.0 | 14.0 | 0.00 | 0.00 | 0.00 | 38 | 1012.6 |
| 20260507132008 | 42 | 273 | 7.0 | 16.0 | 0.00 | 0.00 | 0.00 | 39 | 1012.7 |
| 20260507131235 | 42 | 234 | 5.0 | 13.0 | 0.00 | 0.00 | 0.00 | 39 | 1012.7 |
| 20260507130709 | 42 | 280 | 7.0 | 16.0 | 0.00 | 0.00 | 0.00 | 41 | 1012.7 |
| 20260507130141 | 41 | 288 | 6.0 | 16.0 | 0.00 | 0.00 | 0.00 | 41 | 1012.6 |
| 20260507125636 | 41 | 278 | 7.0 | 15.0 | 0.00 | 0.00 | 0.00 | 43 | 1012.6 |
| 20260507125111 | 41 | 261 | 6.0 | 15.0 | 0.00 | 0.00 | 0.00 | 43 | 1012.6 |
| 20260507124816 | 40 | 217 | 6.0 | 13.0 | 0.00 | 0.00 | 0.00 | 44 | 1012.6 |
| 20260507124313 | 40 | 258 | 7.0 | 13.0 | 0.00 | 0.00 | 0.00 | 45 | 1012.7 |
| 20260507123538 | 39 | 282 | 7.0 | 13.0 | 0.00 | 0.00 | 0.00 | 45 | 1012.7 |
| 20260507123011 | 39 | 251 | 6.0 | 15.0 | 0.00 | 0.00 | 0.00 | 46 | 1012.8 |
| 20260507122442 | 39 | 296 | 7.0 | 15.0 | 0.00 | 0.00 | 0.00 | 47 | 1012.8 |
| 20260507121918 | 38 | 246 | 8.0 | 15.0 | 0.00 | 0.00 | 0.00 | 48 | 1012.8 |
| 20260507121350 | 38 | 325 | 7.0 | 15.0 | 0.00 | 0.00 | 0.00 | 48 | 1012.7 |
| 20260507120848 | 38 | 284 | 6.0 | 12.0 | 0.00 | 0.00 | 0.00 | 49 | 1012.7 |
| 20260507120323 | 38 | 273 | 6.0 | 12.0 | 0.00 | 0.00 | 0.00 | 49 | 1012.7 |
| 20260507115758 | 37 | 258 | 6.0 | 12.0 | 0.00 | 0.00 | 0.00 | 49 | 1012.6 |
| 20260507115527 | 37 | 277 | 6.0 | 12.0 | 0.00 | 0.00 | 0.00 | 50 | 1012.8 |
| 20260507114730 | 37 | 273 | 5.0 | 11.0 | 0.00 | 0.00 | 0.00 | 50 | 1012.7 |
| 20260507114228 | 37 | 299 | 5.0 | 11.0 | 0.00 | 0.00 | 0.00 | 51 | 1012.6 |
| 20260507113709 | 36 | 243 | 5.0 | 9.0 | 0.00 | 0.00 | 0.00 | 51 | 1012.6 |
| 20260507113441 | 36 | 309 | 5.0 | 10.0 | 0.00 | 0.00 | 0.00 | 51 | 1012.6 |
| 20260507112647 | 36 | 275 | 5.0 | 11.0 | 0.00 | 0.00 | 0.00 | 52 | 1012.7 |
| 20260507112419 | 36 | 293 | 6.0 | 11.0 | 0.00 | 0.00 | 0.00 | 52 | 1012.6 |
| 20260507111643 | 36 | 256 | 5.0 | 11.0 | 0.00 | 0.00 | 0.00 | 52 | 1012.6 |
| 20260507111128 | 36 | 297 | 4.0 | 9.0 | 0.00 | 0.00 | 0.00 | 52 | 1012.6 |
| 20260507110628 | 35 | 308 | 4.0 | 10.0 | 0.00 | 0.00 | 0.00 | 52 | 1012.6 |
| 20260507110104 | 35 | 286 | 4.0 | 10.0 | 0.00 | 0.00 | 0.00 | 52 | 1012.6 |
| 20260507105832 | 36 | 292 | 4.0 | 10.0 | 0.00 | 0.00 | 0.00 | 52 | 1012.6 |
| 20260507105043 | 36 | 282 | 4.0 | 11.0 | 0.00 | 0.00 | 0.00 | 52 | 1012.6 |
| 20260507104519 | 36 | 279 | 4.0 | 11.0 | 0.00 | 0.00 | 0.00 | 52 | 1012.5 |
| 20260507104014 | 36 | 307 | 4.0 | 8.0 | 0.00 | 0.00 | 0.00 | 52 | 1012.6 |
| 20260507103513 | 36 | 258 | 4.0 | 10.0 | 0.00 | 0.00 | 0.00 | 51 | 1012.5 |
| 20260507103013 | 36 | 283 | 4.0 | 10.0 | 0.00 | 0.00 | 0.00 | 51 | 1012.5 |
| 20260507102511 | 36 | 303 | 4.0 | 9.0 | 0.00 | 0.00 | 0.00 | 51 | 1012.5 |
| 20260507102011 | 36 | 278 | 4.0 | 12.0 | 0.00 | 0.00 | 0.00 | 51 | 1012.5 |
| 20260507101449 | 36 | 273 | 4.0 | 9.0 | 0.00 | 0.00 | 0.00 | 51 | 1012.5 |
| 20260507100926 | 36 | 297 | 3.0 | 9.0 | 0.00 | 0.00 | 0.00 | 51 | 1012.4 |
| 20260507100654 | 36 | 261 | 3.0 | 8.0 | 0.00 | 0.00 | 0.00 | 51 | 1012.4 |
| 20260507095858 | 36 | 296 | 4.0 | 9.0 | 0.00 | 0.00 | 0.00 | 51 | 1012.5 |
| 20260507095333 | 36 | 286 | 4.0 | 8.0 | 0.00 | 0.00 | 0.00 | 51 | 1012.5 |
| 20260507095044 | 36 | 288 | 3.0 | 8.0 | 0.00 | 0.00 | 0.00 | 51 | 1012.5 |
| 20260507094315 | 36 | 263 | 3.0 | 9.0 | 0.00 | 0.00 | 0.00 | 51 | 1012.5 |
| 20260507093810 | 37 | 263 | 3.0 | 9.0 | 0.00 | 0.00 | 0.00 | 51 | 1012.5 |
| 20260507093311 | 37 | 287 | 3.0 | 9.0 | 0.00 | 0.00 | 0.00 | 51 | 1012.5 |
| 20260507092809 | 37 | 240 | 3.0 | 8.0 | 0.00 | 0.00 | 0.00 | 51 | 1012.5 |
| 20260507092308 | 37 | 290 | 3.0 | 7.0 | 0.00 | 0.00 | 0.00 | 51 | 1012.5 |
| 20260507091754 | 37 | 311 | 4.0 | 10.0 | 0.00 | 0.00 | 0.00 | 50 | 1012.5 |
| 20260507091232 | 37 | 254 | 3.0 | 10.0 | 0.00 | 0.00 | 0.00 | 50 | 1012.6 |
| 20260507090704 | 37 | 327 | 3.0 | 9.0 | 0.00 | 0.00 | 0.00 | 50 | 1012.5 |
| 20260507090408 | 37 | 313 | 3.0 | 9.0 | 0.00 | 0.00 | 0.00 | 50 | 1012.7 |
| 20260507085632 | 37 | 234 | 4.0 | 10.0 | 0.00 | 0.00 | 0.00 | 50 | 1012.6 |
| 20260507085131 | 37 | 296 | 4.0 | 10.0 | 0.00 | 0.00 | 0.00 | 50 | 1012.6 |
| 20260507084605 | 37 | 276 | 3.0 | 8.0 | 0.00 | 0.00 | 0.00 | 50 | 1012.7 |
| 20260507084102 | 38 | 282 | 2.0 | 8.0 | 0.00 | 0.00 | 0.00 | 50 | 1012.7 |
| 20260507083559 | 38 | 19 | 2.0 | 4.0 | 0.00 | 0.00 | 0.00 | 49 | 1012.7 |
| 20260507083055 | 38 | 259 | 3.0 | 6.0 | 0.00 | 0.00 | 0.00 | 49 | 1012.7 |
| 20260507082556 | 38 | 290 | 3.0 | 6.0 | 0.00 | 0.00 | 0.00 | 49 | 1012.7 |
| 20260507082054 | 38 | 263 | 3.0 | 8.0 | 0.00 | 0.00 | 0.00 | 49 | 1012.7 |
| 20260507081550 | 38 | 238 | 3.0 | 8.0 | 0.00 | 0.00 | 0.00 | 48 | 1012.7 |
| 20260507081048 | 39 | 345 | 3.0 | 8.0 | 0.00 | 0.00 | 0.00 | 48 | 1012.8 |